Content
SEND FEEDBACK

Daily
Averages
Monthly
Summary
United States of America

EL PASO, TEXAS


Home > North America > United States > Texas
Elevation: 3918 feet     Latitude: 31 48N     Longitude: 106 24W

WEATHER
 
SELECT A DAY
Number of Records: 174,597;   Date Range: 1/1/95 - 10/21/14
 
SHARE

PRINT THIS DATA

[ ← Previous Day ]
WEATHER ALMANAC - SEPTEMBER 15, 2013
[ Next Day → ]
[ °C ]   °F
Weather ElementAverageHighLow
Temperature75.1 °F84 °F (1:51 pm)64.9 °F (5:51 am)
Dewpoint57.8 °F61 °F (7:51 pm)54 °F (3:51 pm)
Humidity56.6 %78 % (4:51 am)37 % (4:51 pm)
Barometer29.83 in29.87 in (9:51 am)29.77 in (2:51 am)
Wind Speed6.8 mph16.1 mph (5:51 pm)
Wind Gust26.5 mph (5:51 pm)
Weather ElementAverage
Visibility10 mi
Wind DirectionE (93.9 °)

Weather ElementTotal
Precipitation---
Cooling Degree Days9.5 (Base 65)
Growing Degree Days24.5 (Base 50)
Averaged from 23 records on September 15, 2013
WEATHER CONDITIONS BREAKOUT
WIND DIRECTION BREAKOUT
WEATHER BY HOUR - SEPTEMBER 15, 2013
[ °C ]   °F
Local TimeTemperatureDewpointHumidityBarometerVisibilityWind DirectionWind SpeedGust SpeedPrecipitationEventsConditions
1:51 AM69.1 °F59.0 °F70 %29.78 in10.0 miNNE (20°)3.5 mphPartly Cloudy
2:51 AM69.1 °F59.0 °F70 %29.77 in10.0 miNNE (20°)5.8 mphScattered Clouds
3:51 AM68.0 °F59.0 °F73 %29.78 in10.0 miNNE (30°)4.6 mphMostly Cloudy
4:51 AM66.0 °F59.0 °F78 %29.79 in10.0 miNorth (10°)3.5 mphScattered Clouds
5:51 AM64.9 °F57.9 °F78 %29.81 in10.0 miNorth (10°)5.8 mphScattered Clouds
6:51 AM64.9 °F57.9 °F78 %29.83 in10.0 miNorth (360°)5.8 mphScattered Clouds
7:51 AM66.9 °F57.0 °F70 %29.85 in10.0 miNorth (350°)9.2 mphScattered Clouds
8:51 AM71.1 °F57.0 °F61 %29.86 in10.0 miNorth (10°)9.2 mphScattered Clouds
9:51 AM75.0 °F57.0 °F53 %29.87 in10.0 miNorth (10°)6.9 mphScattered Clouds
10:51 AM79.0 °F55.9 °F45 %29.87 in10.0 miNNE (20°)3.5 mphScattered Clouds
11:51 AM81.0 °F57.0 °F44 %29.86 in10.0 miVariable4.6 mphScattered Clouds
12:51 PM82.9 °F57.9 °F42 %29.84 in10.0 miSE (140°)6.9 mphScattered Clouds
1:51 PM84.0 °F57.0 °F40 %29.82 in10.0 miSSE (150°)6.9 mphMostly Cloudy
2:51 PM84.0 °F57.0 °F40 %29.80 in10.0 miESE (110°)9.2 mphMostly Cloudy
3:51 PM82.0 °F54.0 °F38 %29.81 in10.0 miSSE (150°)9.2 mphMostly Cloudy
4:51 PM84.0 °F55.0 °F37 %29.79 in10.0 miESE (110°)5.8 mphMostly Cloudy
5:51 PM75.9 °F54.0 °F46 %29.83 in10.0 miESE (110°)16.1 mph26.5 mphMostly Cloudy
6:51 PM77.0 °F57.0 °F50 %29.83 in10.0 miENE (60°)6.9 mphMostly Cloudy
7:51 PM77.0 °F61.0 °F58 %29.84 in10.0 miENE (70°)8.1 mphMostly Cloudy
8:51 PM78.1 °F61.0 °F56 %29.85 in10.0 miNNE (20°)4.6 mphMostly Cloudy
9:51 PM78.1 °F59.0 °F52 %29.85 in10.0 miNNE (20°)6.9 mphScattered Clouds
10:51 PM75.9 °F60.1 °F58 %29.86 in10.0 miNNE (20°)6.9 mphScattered Clouds
11:51 PM73.9 °F61.0 °F64 %29.87 in10.0 miNorth (360°)6.9 mphScattered Clouds
Hourly data recorded from KELP, located miles away from El Paso, Texas







STORIES FROM OUR PARTNERS